ROMMA est une association bénévole à but non lucratif. Votre soutien est indispensable : ADHERER à ROMMA ou FAIRE un DON

Voiron - (38, Isère)

Voironnais (300 m)   Longitude: 05° 35' E   Latitude: 45° 23' N Station partenaire n°109
 

Détail journalier du     <<     >>

Température Precipitation Humidité Pression Vent Dir Rafale Dir. rafale Ensol.
Heure (°C) (mm) (%) (hPa) (km/h) (km/h) (min)
01:00 6.807210312NE8N0
02:00 6.207210322N8NE0
03:00 6.007310312N8NE0
04:00 5.807110312SSO8SSE0
05:00 5.007410312O10SSO0
06:00 5.007410313ENE10S0
07:00 4.607310312SSE10SSE0
08:00 6.306910322SE8SSO30
09:00 10.505810322NE5SSO60
10:00 11.205110325S15SSE60
11:00 12.805110316S15S60
12:00 14.704410316S16SSE60
13:00 16.604010307S16S60
14:00 18.903610293ESE13SSO60
15:00 20.703410294S11S60
16:00 22.602310286NNE21NNO60
17:00 21.5031102711N21NNO60
18:00 20.6034102812N24NNO60
19:00 18.604010288N23N0
20:00 16.004710282NO10NE0
21:00 13.905310283NNO11NO0
22:00 12.1061102903NNO0
23:00 11.006310291NNO5NNO0
minuit 10.306410292NNO5NNO0

Graphique du 22-03-2019

 

Serveur OMMA